Year,Month,Day,Hour,Minute,Value (Times are PST for temperature in C)
2009,07,16,00,00,16.30
2009,07,16,00,01,16.30
2009,07,16,00,02,16.30
2009,07,16,00,03,16.30
2009,07,16,00,04,16.30
2009,07,16,00,05,16.30
2009,07,16,00,06,16.30
2009,07,16,00,07,16.30
2009,07,16,00,08,16.30
2009,07,16,00,09,16.20
2009,07,16,00,10,16.20
2009,07,16,00,11,16.20
2009,07,16,00,12,16.20
2009,07,16,00,13,16.20
2009,07,16,00,14,16.10
2009,07,16,00,15,16.10
2009,07,16,00,16,16.10
2009,07,16,00,17,16.10
2009,07,16,00,18,16.00
2009,07,16,00,19,16.00
2009,07,16,00,20,15.90
2009,07,16,00,21,15.90
2009,07,16,00,22,15.90
2009,07,16,00,23,15.80
2009,07,16,00,24,15.80
2009,07,16,00,25,15.70
2009,07,16,00,26,15.70
2009,07,16,00,27,15.60
2009,07,16,00,28,15.50
2009,07,16,00,29,15.40
2009,07,16,00,30,15.40
2009,07,16,00,31,15.30
2009,07,16,00,32,15.30
2009,07,16,00,33,15.20
2009,07,16,00,34,15.20
2009,07,16,00,35,15.10
2009,07,16,00,36,15.00
2009,07,16,00,37,15.00
2009,07,16,00,38,15.00
2009,07,16,00,39,15.00
2009,07,16,00,40,15.00
2009,07,16,00,41,15.00
2009,07,16,00,42,15.00
2009,07,16,00,43,15.00
2009,07,16,00,44,15.00
2009,07,16,00,45,15.00
2009,07,16,00,46,15.00
2009,07,16,00,47,15.00
2009,07,16,00,48,15.00
2009,07,16,00,49,15.00
2009,07,16,00,50,15.00
2009,07,16,00,51,15.00
2009,07,16,00,52,15.00
2009,07,16,00,53,15.00
2009,07,16,00,54,15.00
2009,07,16,00,55,15.00
2009,07,16,00,56,15.00
2009,07,16,00,57,15.00
2009,07,16,00,58,15.00
2009,07,16,00,59,15.00
2009,07,16,01,00,15.00
2009,07,16,01,01,15.00
2009,07,16,01,02,15.00
2009,07,16,01,03,15.00
2009,07,16,01,04,15.00
2009,07,16,01,05,15.00
2009,07,16,01,06,15.00
2009,07,16,01,07,15.00
2009,07,16,01,08,15.00
2009,07,16,01,09,15.00
2009,07,16,01,10,15.00
2009,07,16,01,11,15.00
2009,07,16,01,12,15.00
2009,07,16,01,13,14.90
2009,07,16,01,14,14.90
2009,07,16,01,15,14.90
2009,07,16,01,16,14.90
2009,07,16,01,17,14.80
2009,07,16,01,18,14.80
2009,07,16,01,19,14.80
2009,07,16,01,20,14.80
2009,07,16,01,21,14.80
2009,07,16,01,22,14.80
2009,07,16,01,23,14.80
2009,07,16,01,24,14.70
2009,07,16,01,25,14.70
2009,07,16,01,26,14.70
2009,07,16,01,27,14.70
2009,07,16,01,28,14.70
2009,07,16,01,29,14.60
2009,07,16,01,30,14.60
2009,07,16,01,31,14.60
2009,07,16,01,32,14.60
2009,07,16,01,33,14.60
2009,07,16,01,34,14.60
2009,07,16,01,35,14.50
2009,07,16,01,36,14.50
2009,07,16,01,37,14.50
2009,07,16,01,38,14.40
2009,07,16,01,39,14.40
2009,07,16,01,40,14.40
2009,07,16,01,41,14.40
2009,07,16,01,42,14.40
2009,07,16,01,43,14.40
2009,07,16,01,44,14.40
2009,07,16,01,45,14.40
2009,07,16,01,46,14.40
2009,07,16,01,47,14.40
2009,07,16,01,48,14.40
2009,07,16,01,49,14.40
2009,07,16,01,50,14.40
2009,07,16,01,51,14.40
2009,07,16,01,52,14.40
2009,07,16,01,53,14.40
2009,07,16,01,54,14.40
2009,07,16,01,55,14.40
2009,07,16,01,56,14.40
2009,07,16,01,57,14.40
2009,07,16,01,58,14.40
2009,07,16,01,59,14.40
2009,07,16,02,00,14.40
2009,07,16,02,01,14.40
2009,07,16,02,02,14.40
2009,07,16,02,03,14.40
2009,07,16,02,04,14.40
2009,07,16,02,05,14.40
2009,07,16,02,06,14.40
2009,07,16,02,07,14.40
2009,07,16,02,08,14.40
2009,07,16,02,09,14.40
2009,07,16,02,10,14.40
2009,07,16,02,11,14.40
2009,07,16,02,12,14.40
2009,07,16,02,13,14.40
2009,07,16,02,14,14.40
2009,07,16,02,15,14.40
2009,07,16,02,16,14.40
2009,07,16,02,17,14.40
2009,07,16,02,18,14.40
2009,07,16,02,19,14.40
2009,07,16,02,20,14.30
2009,07,16,02,21,14.30
2009,07,16,02,22,14.30
2009,07,16,02,23,14.30
2009,07,16,02,24,14.30
2009,07,16,02,25,14.30
2009,07,16,02,26,14.30
2009,07,16,02,27,14.20
2009,07,16,02,28,14.20
2009,07,16,02,29,14.20
2009,07,16,02,30,14.20
2009,07,16,02,31,14.20
2009,07,16,02,32,14.20
2009,07,16,02,33,14.20
2009,07,16,02,34,14.20
2009,07,16,02,35,14.20
2009,07,16,02,36,14.20
2009,07,16,02,37,14.20
2009,07,16,02,38,14.20
2009,07,16,02,39,14.20
2009,07,16,02,40,14.20
2009,07,16,02,41,14.20
2009,07,16,02,42,14.20
2009,07,16,02,43,14.20
2009,07,16,02,44,14.20
2009,07,16,02,45,14.20
2009,07,16,02,46,14.20
2009,07,16,02,47,14.20
2009,07,16,02,48,14.20
2009,07,16,02,49,14.20
2009,07,16,02,50,14.20
2009,07,16,02,51,14.20
2009,07,16,02,52,14.10
2009,07,16,02,53,14.10
2009,07,16,02,54,14.10
2009,07,16,02,55,14.10
2009,07,16,02,56,14.10
2009,07,16,02,57,14.10
2009,07,16,02,58,14.00
2009,07,16,02,59,14.00
2009,07,16,03,00,14.00
2009,07,16,03,01,14.00
2009,07,16,03,02,13.90
2009,07,16,03,03,13.90
2009,07,16,03,04,13.90
2009,07,16,03,05,13.90
2009,07,16,03,06,13.90
2009,07,16,03,07,13.90
2009,07,16,03,08,13.90
2009,07,16,03,09,13.80
2009,07,16,03,10,13.80
2009,07,16,03,11,13.80
2009,07,16,03,12,13.80
2009,07,16,03,13,13.80
2009,07,16,03,14,13.80
2009,07,16,03,15,13.70
2009,07,16,03,16,13.70
2009,07,16,03,17,13.70
2009,07,16,03,18,13.70
2009,07,16,03,19,13.70
2009,07,16,03,20,13.70
2009,07,16,03,21,13.70
2009,07,16,03,22,13.70
2009,07,16,03,23,13.70
2009,07,16,03,24,13.60
2009,07,16,03,25,13.60
2009,07,16,03,26,13.60
2009,07,16,03,27,13.60
2009,07,16,03,28,13.60
2009,07,16,03,29,13.60
2009,07,16,03,30,13.60
2009,07,16,03,31,13.60
2009,07,16,03,32,13.60
2009,07,16,03,33,13.60
2009,07,16,03,34,13.60
2009,07,16,03,35,13.60
2009,07,16,03,36,13.60
2009,07,16,03,37,13.60
2009,07,16,03,38,13.60
2009,07,16,03,39,13.60
2009,07,16,03,40,13.60
2009,07,16,03,41,13.50
2009,07,16,03,42,13.50
2009,07,16,03,43,13.50
2009,07,16,03,44,13.50
2009,07,16,03,45,13.40
2009,07,16,03,46,13.40
2009,07,16,03,47,13.40
2009,07,16,03,48,13.40
2009,07,16,03,49,13.30
2009,07,16,03,50,13.30
2009,07,16,03,51,13.30
2009,07,16,03,52,13.30
2009,07,16,03,53,13.30
2009,07,16,03,54,13.20
2009,07,16,03,55,13.20
2009,07,16,03,56,13.20
2009,07,16,03,57,13.20
2009,07,16,03,58,13.20
2009,07,16,03,59,13.20
2009,07,16,04,00,13.20
2009,07,16,04,01,13.20
2009,07,16,04,02,13.10
2009,07,16,04,03,13.10
2009,07,16,04,04,13.10
2009,07,16,04,05,13.10
2009,07,16,04,06,13.10
2009,07,16,04,07,13.10
2009,07,16,04,08,13.10
2009,07,16,04,09,13.10
2009,07,16,04,10,13.10
2009,07,16,04,11,13.10
2009,07,16,04,12,13.10
2009,07,16,04,13,13.10
2009,07,16,04,14,13.10
2009,07,16,04,15,13.10
2009,07,16,04,16,13.10
2009,07,16,04,17,13.10
2009,07,16,04,18,13.10
2009,07,16,04,19,13.00
2009,07,16,04,20,13.00
2009,07,16,04,21,13.00
2009,07,16,04,22,13.00
2009,07,16,04,23,12.90
2009,07,16,04,24,12.90
2009,07,16,04,25,12.90
2009,07,16,04,26,12.90
2009,07,16,04,27,12.90
2009,07,16,04,28,12.90
2009,07,16,04,29,12.90
2009,07,16,04,30,12.90
2009,07,16,04,31,12.90
2009,07,16,04,32,12.90
2009,07,16,04,33,12.90
2009,07,16,04,34,12.90
2009,07,16,04,35,12.90
2009,07,16,04,36,12.90
2009,07,16,04,37,12.90
2009,07,16,04,38,12.90
2009,07,16,04,39,12.90
2009,07,16,04,40,12.90
2009,07,16,04,41,12.80
2009,07,16,04,42,12.80
2009,07,16,04,43,12.80
2009,07,16,04,44,12.80
2009,07,16,04,45,12.80
2009,07,16,04,46,12.80
2009,07,16,04,47,12.80
2009,07,16,04,48,12.80
2009,07,16,04,49,12.80
2009,07,16,04,50,12.70
2009,07,16,04,51,12.70
2009,07,16,04,52,12.70
2009,07,16,04,53,12.70
2009,07,16,04,54,12.70
2009,07,16,04,55,12.70
2009,07,16,04,56,12.70
2009,07,16,04,57,12.70
2009,07,16,04,58,12.70
2009,07,16,04,59,12.70
2009,07,16,05,00,12.70
2009,07,16,05,01,12.70
2009,07,16,05,02,12.70
2009,07,16,05,03,12.60
2009,07,16,05,04,12.60
2009,07,16,05,05,12.60
2009,07,16,05,06,12.60
2009,07,16,05,07,12.60
2009,07,16,05,08,12.60
2009,07,16,05,09,12.60
2009,07,16,05,10,12.60
2009,07,16,05,11,12.50
2009,07,16,05,12,12.50
2009,07,16,05,13,12.50
2009,07,16,05,14,12.50
2009,07,16,05,15,12.50
2009,07,16,05,16,12.40
2009,07,16,05,17,12.40
2009,07,16,05,18,12.40
2009,07,16,05,19,12.40
2009,07,16,05,20,12.40
2009,07,16,05,21,12.40
2009,07,16,05,22,12.30
2009,07,16,05,23,12.30
2009,07,16,05,24,12.30
2009,07,16,05,25,12.30
2009,07,16,05,26,12.30
2009,07,16,05,27,12.20
2009,07,16,05,28,12.20
2009,07,16,05,29,12.20
2009,07,16,05,30,12.20
2009,07,16,05,31,12.20
2009,07,16,05,32,12.20
2009,07,16,05,33,12.20
2009,07,16,05,34,12.20
2009,07,16,05,35,12.20
2009,07,16,05,36,12.20
2009,07,16,05,37,12.20
2009,07,16,05,38,12.20
2009,07,16,05,39,12.20
2009,07,16,05,40,12.20
2009,07,16,05,41,12.10
2009,07,16,05,42,12.10
2009,07,16,05,43,12.10
2009,07,16,05,44,12.10
2009,07,16,05,45,12.10
2009,07,16,05,46,12.10
2009,07,16,05,47,12.10
2009,07,16,05,48,12.10
2009,07,16,05,49,12.10
2009,07,16,05,50,12.10
2009,07,16,05,51,12.10
2009,07,16,05,52,12.10
2009,07,16,05,53,12.10
2009,07,16,05,54,12.10
2009,07,16,05,55,12.10
2009,07,16,05,56,12.10
2009,07,16,05,57,12.10
2009,07,16,05,58,12.10
2009,07,16,05,59,12.10
2009,07,16,06,00,12.10
2009,07,16,06,01,12.10
2009,07,16,06,02,12.10
2009,07,16,06,03,12.10
2009,07,16,06,04,12.20
2009,07,16,06,05,12.20
2009,07,16,06,06,12.20
2009,07,16,06,07,12.20
2009,07,16,06,08,12.20
2009,07,16,06,09,12.20
2009,07,16,06,10,12.20
2009,07,16,06,11,12.20
2009,07,16,06,12,12.20
2009,07,16,06,13,12.20
2009,07,16,06,14,12.20
2009,07,16,06,15,12.20
2009,07,16,06,16,12.20
2009,07,16,06,17,12.20
2009,07,16,06,18,12.20
2009,07,16,06,19,12.20
2009,07,16,06,20,12.20
2009,07,16,06,21,12.20
2009,07,16,06,22,12.20
2009,07,16,06,23,12.20
2009,07,16,06,24,12.20
2009,07,16,06,25,12.20
2009,07,16,06,26,12.20
2009,07,16,06,27,12.20
2009,07,16,06,28,12.20
2009,07,16,06,29,12.20
2009,07,16,06,30,12.20
2009,07,16,06,31,12.20
2009,07,16,06,32,12.30
2009,07,16,06,33,12.30
2009,07,16,06,34,12.30
2009,07,16,06,35,12.30
2009,07,16,06,36,12.30
2009,07,16,06,37,12.30
2009,07,16,06,38,12.30
2009,07,16,06,39,12.30
2009,07,16,06,40,12.40
2009,07,16,06,41,12.40
2009,07,16,06,42,12.50
2009,07,16,06,43,12.50
2009,07,16,06,44,12.50
2009,07,16,06,45,12.60
2009,07,16,06,46,12.60
2009,07,16,06,47,12.60
2009,07,16,06,48,12.60
2009,07,16,06,49,12.60
2009,07,16,06,50,12.60
2009,07,16,06,51,12.60
2009,07,16,06,52,12.70
2009,07,16,06,53,12.70
2009,07,16,06,54,12.70
2009,07,16,06,55,12.70
2009,07,16,06,56,12.70
2009,07,16,06,57,12.80
2009,07,16,06,58,12.80
2009,07,16,06,59,12.80
2009,07,16,07,00,12.80
2009,07,16,07,01,12.90
2009,07,16,07,02,12.90
2009,07,16,07,03,12.90
2009,07,16,07,04,12.90
2009,07,16,07,05,13.00
2009,07,16,07,06,13.00
2009,07,16,07,07,13.10
2009,07,16,07,08,13.10
2009,07,16,07,09,13.10
2009,07,16,07,10,13.10
2009,07,16,07,11,13.20
2009,07,16,07,12,13.20
2009,07,16,07,13,13.20
2009,07,16,07,14,13.20
2009,07,16,07,15,13.30
2009,07,16,07,16,13.30
2009,07,16,07,17,13.30
2009,07,16,07,18,13.30
2009,07,16,07,19,13.30
2009,07,16,07,20,13.30
2009,07,16,07,21,13.40
2009,07,16,07,22,13.40
2009,07,16,07,23,13.40
2009,07,16,07,24,13.40
2009,07,16,07,25,13.50
2009,07,16,07,26,13.50
2009,07,16,07,27,13.50
2009,07,16,07,28,13.60
2009,07,16,07,29,13.60
2009,07,16,07,30,13.60
2009,07,16,07,31,13.70
2009,07,16,07,32,13.70
2009,07,16,07,33,13.70
2009,07,16,07,34,13.80
2009,07,16,07,35,13.80
2009,07,16,07,36,13.80
2009,07,16,07,37,13.80
2009,07,16,07,38,13.90
2009,07,16,07,39,13.90
2009,07,16,07,40,13.90
2009,07,16,07,41,14.00
2009,07,16,07,42,14.10
2009,07,16,07,43,14.10
2009,07,16,07,44,14.20
2009,07,16,07,45,14.30
2009,07,16,07,46,14.30
2009,07,16,07,47,14.30
2009,07,16,07,48,14.40
2009,07,16,07,49,14.40
2009,07,16,07,50,14.50
2009,07,16,07,51,14.50
2009,07,16,07,52,14.60
2009,07,16,07,53,14.60
2009,07,16,07,54,14.60
2009,07,16,07,55,14.70
2009,07,16,07,56,14.70
2009,07,16,07,57,14.80
2009,07,16,07,58,14.80
2009,07,16,07,59,14.80
2009,07,16,08,00,14.90
2009,07,16,08,01,15.00
2009,07,16,08,02,15.00
2009,07,16,08,03,15.00
2009,07,16,08,04,15.00
2009,07,16,08,05,15.00
2009,07,16,08,06,15.10
2009,07,16,08,07,15.20
2009,07,16,08,08,15.20
2009,07,16,08,09,15.30
2009,07,16,08,10,15.40
2009,07,16,08,11,15.50
2009,07,16,08,12,15.50
2009,07,16,08,13,15.60
2009,07,16,08,14,15.70
2009,07,16,08,15,15.80
2009,07,16,08,16,15.80
2009,07,16,08,17,15.90
2009,07,16,08,18,15.90
2009,07,16,08,19,16.00
2009,07,16,08,20,16.10
2009,07,16,08,21,16.10
2009,07,16,08,22,16.20
2009,07,16,08,23,16.20
2009,07,16,08,24,16.20
2009,07,16,08,25,16.30
2009,07,16,08,26,16.40
2009,07,16,08,27,16.50
2009,07,16,08,28,16.60
2009,07,16,08,29,16.70
2009,07,16,08,30,16.80
2009,07,16,08,31,16.90
2009,07,16,08,32,17.00
2009,07,16,08,33,17.10
2009,07,16,08,34,17.20
2009,07,16,08,35,17.40
2009,07,16,08,36,17.50
2009,07,16,08,37,17.60
2009,07,16,08,38,17.70
2009,07,16,08,39,17.80
2009,07,16,08,40,17.90
2009,07,16,08,41,18.00
2009,07,16,08,42,18.10
2009,07,16,08,43,18.10
2009,07,16,08,44,18.20
2009,07,16,08,45,18.30
2009,07,16,08,46,18.40
2009,07,16,08,47,18.50
2009,07,16,08,48,18.50
2009,07,16,08,49,18.60
2009,07,16,08,50,18.60
2009,07,16,08,51,18.60
2009,07,16,08,52,18.60
2009,07,16,08,53,18.60
2009,07,16,08,54,18.60
2009,07,16,08,55,18.60
2009,07,16,08,56,18.60
2009,07,16,08,57,18.70
2009,07,16,08,58,18.70
2009,07,16,08,59,18.80
2009,07,16,09,00,18.90
2009,07,16,09,01,18.90
2009,07,16,09,02,19.00
2009,07,16,09,03,19.10
2009,07,16,09,04,19.10
2009,07,16,09,05,19.20
2009,07,16,09,06,19.30
2009,07,16,09,07,19.30
2009,07,16,09,08,19.40
2009,07,16,09,09,19.40
2009,07,16,09,10,19.50
2009,07,16,09,11,19.60
2009,07,16,09,12,19.70
2009,07,16,09,13,19.70
2009,07,16,09,14,19.80
2009,07,16,09,15,19.90
2009,07,16,09,16,19.90
2009,07,16,09,17,20.00
2009,07,16,09,18,20.10
2009,07,16,09,19,20.20
2009,07,16,09,20,20.20
2009,07,16,09,21,20.30
2009,07,16,09,22,20.30
2009,07,16,09,23,20.30
2009,07,16,09,24,20.30
2009,07,16,09,25,20.30
2009,07,16,09,26,20.30
2009,07,16,09,27,20.30
2009,07,16,09,28,20.30
2009,07,16,09,29,20.30
2009,07,16,09,30,20.30
2009,07,16,09,31,20.30
2009,07,16,09,32,20.30
2009,07,16,09,33,20.30
2009,07,16,09,34,20.20
2009,07,16,09,35,20.30
2009,07,16,09,36,20.20
2009,07,16,09,37,20.30
2009,07,16,09,38,20.30
2009,07,16,09,39,20.30
2009,07,16,09,40,20.30
2009,07,16,09,41,20.40
2009,07,16,09,42,20.50
2009,07,16,09,43,20.50
2009,07,16,09,44,20.60
2009,07,16,09,45,20.70
2009,07,16,09,46,20.80
2009,07,16,09,47,20.80
2009,07,16,09,48,20.80
2009,07,16,09,49,20.70
2009,07,16,09,50,20.70
2009,07,16,09,51,20.70
2009,07,16,09,52,20.70
2009,07,16,09,53,20.70
2009,07,16,09,54,20.80
2009,07,16,09,55,20.90
2009,07,16,09,56,20.80
2009,07,16,09,57,20.70
2009,07,16,09,58,20.60
2009,07,16,09,59,20.50
2009,07,16,10,00,20.50
2009,07,16,10,01,20.50
2009,07,16,10,02,20.60
2009,07,16,10,03,20.50
2009,07,16,10,04,20.50
2009,07,16,10,05,20.40
2009,07,16,10,06,20.30
2009,07,16,10,07,20.20
2009,07,16,10,08,20.10
2009,07,16,10,09,20.10
2009,07,16,10,10,20.10
2009,07,16,10,11,20.00
2009,07,16,10,12,20.00
2009,07,16,10,13,19.90
2009,07,16,10,14,19.90
2009,07,16,10,15,19.90
2009,07,16,10,16,20.00
2009,07,16,10,17,20.00
2009,07,16,10,18,20.10
2009,07,16,10,19,20.20
2009,07,16,10,20,20.20
2009,07,16,10,21,20.10
2009,07,16,10,22,20.00
2009,07,16,10,23,19.90
2009,07,16,10,24,19.90
2009,07,16,10,25,19.80
2009,07,16,10,26,19.80
2009,07,16,10,27,19.80
2009,07,16,10,28,19.80
2009,07,16,10,29,19.80
2009,07,16,10,30,19.80
2009,07,16,10,31,19.80
2009,07,16,10,32,19.90
2009,07,16,10,33,19.90
2009,07,16,10,34,20.00
2009,07,16,10,35,20.10
2009,07,16,10,36,20.20
2009,07,16,10,37,20.30
2009,07,16,10,38,20.30
2009,07,16,10,39,20.40
2009,07,16,10,40,20.40
2009,07,16,10,41,20.30
2009,07,16,10,42,20.30
2009,07,16,10,43,20.20
2009,07,16,10,44,20.10
2009,07,16,10,45,20.00
2009,07,16,10,46,20.00
2009,07,16,10,47,20.00
2009,07,16,10,48,20.10
2009,07,16,10,49,20.10
2009,07,16,10,50,20.10
2009,07,16,10,51,20.10
2009,07,16,10,52,20.20
2009,07,16,10,53,20.10
2009,07,16,10,54,20.10
2009,07,16,10,55,20.10
2009,07,16,10,56,20.10
2009,07,16,10,57,20.10
2009,07,16,10,58,20.10
2009,07,16,10,59,20.10
2009,07,16,11,00,20.10
2009,07,16,11,01,20.00
2009,07,16,11,02,20.00
2009,07,16,11,03,19.90
2009,07,16,11,04,19.90
2009,07,16,11,05,19.80
2009,07,16,11,06,19.80
2009,07,16,11,07,19.80
2009,07,16,11,08,19.80
2009,07,16,11,09,19.80
2009,07,16,11,10,19.90
2009,07,16,11,11,20.10
2009,07,16,11,12,20.30
2009,07,16,11,13,20.40
2009,07,16,11,14,20.60
2009,07,16,11,15,20.60
2009,07,16,11,16,20.60
2009,07,16,11,17,20.60
2009,07,16,11,18,20.70
2009,07,16,11,19,20.70
2009,07,16,11,20,20.80
2009,07,16,11,21,20.80
2009,07,16,11,22,20.80
2009,07,16,11,23,20.80
2009,07,16,11,24,20.80
2009,07,16,11,25,20.90
2009,07,16,11,26,21.10
2009,07,16,11,27,21.30
2009,07,16,11,28,21.50
2009,07,16,11,29,21.60
2009,07,16,11,30,21.60
2009,07,16,11,31,21.70
2009,07,16,11,32,21.80
2009,07,16,11,33,21.80
2009,07,16,11,34,21.80
2009,07,16,11,35,21.90
2009,07,16,11,36,22.00
2009,07,16,11,37,22.20
2009,07,16,11,38,22.30
2009,07,16,11,39,22.40
2009,07,16,11,40,22.40
2009,07,16,11,41,22.50
2009,07,16,11,42,22.60
2009,07,16,11,43,22.50
2009,07,16,11,44,22.50
2009,07,16,11,45,22.50
2009,07,16,11,46,22.50
2009,07,16,11,47,22.50
2009,07,16,11,48,22.40
2009,07,16,11,49,22.30
2009,07,16,11,50,22.20
2009,07,16,11,51,22.10
2009,07,16,11,52,21.90
2009,07,16,11,53,21.80
2009,07,16,11,54,21.60
2009,07,16,11,55,21.50
2009,07,16,11,56,21.30
2009,07,16,11,57,21.20
2009,07,16,11,58,21.10
2009,07,16,11,59,21.00
2009,07,16,12,00,20.90
2009,07,16,12,01,20.80
2009,07,16,12,02,20.70
2009,07,16,12,03,20.70
2009,07,16,12,04,20.70
2009,07,16,12,05,20.70
2009,07,16,12,06,20.70
2009,07,16,12,07,20.70
2009,07,16,12,08,20.70
2009,07,16,12,09,20.70
2009,07,16,12,10,20.70
2009,07,16,12,11,20.70
2009,07,16,12,12,20.70
2009,07,16,12,13,20.60
2009,07,16,12,14,20.60
2009,07,16,12,15,20.60
2009,07,16,12,16,20.60
2009,07,16,12,17,20.60
2009,07,16,12,18,20.60
2009,07,16,12,19,20.60
2009,07,16,12,20,20.70
2009,07,16,12,21,20.70
2009,07,16,12,22,20.80
2009,07,16,12,23,20.80
2009,07,16,12,24,20.80
2009,07,16,12,25,20.80
2009,07,16,12,26,20.80
2009,07,16,12,27,20.90
2009,07,16,12,28,20.90
2009,07,16,12,29,21.00
2009,07,16,12,30,21.00
2009,07,16,12,31,21.10
2009,07,16,12,32,21.20
2009,07,16,12,33,21.20
2009,07,16,12,34,21.10
2009,07,16,12,35,21.10
2009,07,16,12,36,21.00
2009,07,16,12,37,21.00
2009,07,16,12,38,20.90
2009,07,16,12,39,20.90
2009,07,16,12,40,20.80
2009,07,16,12,41,20.80
2009,07,16,12,42,20.90
2009,07,16,12,43,20.90
2009,07,16,12,44,21.10
2009,07,16,12,45,21.20
2009,07,16,12,46,21.20
2009,07,16,12,47,21.30
2009,07,16,12,48,21.30
2009,07,16,12,49,21.30
2009,07,16,12,50,21.30
2009,07,16,12,51,21.30
2009,07,16,12,52,21.20
2009,07,16,12,53,21.20
2009,07,16,12,54,21.20
2009,07,16,12,55,21.30
2009,07,16,12,56,21.40
2009,07,16,12,57,21.50
2009,07,16,12,58,21.60
2009,07,16,12,59,21.70
2009,07,16,13,00,21.80
2009,07,16,13,01,21.90
2009,07,16,13,02,21.90
2009,07,16,13,03,22.00
2009,07,16,13,04,22.00
2009,07,16,13,05,22.10
2009,07,16,13,06,22.20
2009,07,16,13,07,22.20
2009,07,16,13,08,22.20
2009,07,16,13,09,22.20
2009,07,16,13,10,22.20
2009,07,16,13,11,22.10
2009,07,16,13,12,22.10
2009,07,16,13,13,22.10
2009,07,16,13,14,22.10
2009,07,16,13,15,21.90
2009,07,16,13,16,21.80
2009,07,16,13,17,21.70
2009,07,16,13,18,21.70
2009,07,16,13,19,21.70
2009,07,16,13,20,21.80
2009,07,16,13,21,21.80
2009,07,16,13,22,21.80
2009,07,16,13,23,21.90
2009,07,16,13,24,22.00
2009,07,16,13,25,22.20
2009,07,16,13,26,22.20
2009,07,16,13,27,22.30
2009,07,16,13,28,22.40
2009,07,16,13,29,22.40
2009,07,16,13,30,22.30
2009,07,16,13,31,22.30
2009,07,16,13,32,22.40
2009,07,16,13,33,22.50
2009,07,16,13,34,22.50
2009,07,16,13,35,22.50
2009,07,16,13,36,22.50
2009,07,16,13,37,22.60
2009,07,16,13,38,22.70
2009,07,16,13,39,22.80
2009,07,16,13,40,22.80
2009,07,16,13,41,22.90
2009,07,16,13,42,23.00
2009,07,16,13,43,23.10
2009,07,16,13,44,23.30
2009,07,16,13,45,23.40
2009,07,16,13,46,23.50
2009,07,16,13,47,23.70
2009,07,16,13,48,23.80
2009,07,16,13,49,23.80
2009,07,16,13,50,23.70
2009,07,16,13,51,23.70
2009,07,16,13,52,23.70
2009,07,16,13,53,23.70
2009,07,16,13,54,23.70
2009,07,16,13,55,23.80
2009,07,16,13,56,23.90
2009,07,16,13,57,24.00
2009,07,16,13,58,24.10
2009,07,16,13,59,24.20
2009,07,16,14,00,24.30
2009,07,16,14,01,24.40
2009,07,16,14,02,24.50
2009,07,16,14,03,24.60
2009,07,16,14,04,24.70
2009,07,16,14,05,24.80
2009,07,16,14,06,24.90
2009,07,16,14,07,25.10
2009,07,16,14,08,25.20
2009,07,16,14,09,25.30
2009,07,16,14,10,25.20
2009,07,16,14,11,25.10
2009,07,16,14,12,24.90
2009,07,16,14,13,24.80
2009,07,16,14,14,24.80
2009,07,16,14,15,24.80
2009,07,16,14,16,25.00
2009,07,16,14,17,25.10
2009,07,16,14,18,25.20
2009,07,16,14,19,25.20
2009,07,16,14,20,25.20
2009,07,16,14,21,25.20
2009,07,16,14,22,25.20
2009,07,16,14,23,25.20
2009,07,16,14,24,25.20
2009,07,16,14,25,25.10
2009,07,16,14,26,25.00
2009,07,16,14,27,24.70
2009,07,16,14,28,24.70
2009,07,16,14,29,24.60
2009,07,16,14,30,24.60
2009,07,16,14,31,24.60
2009,07,16,14,32,24.50
2009,07,16,14,33,24.30
2009,07,16,14,34,24.10
2009,07,16,14,35,24.00
2009,07,16,14,36,23.90
2009,07,16,14,37,23.90
2009,07,16,14,38,23.90
2009,07,16,14,39,24.00
2009,07,16,14,40,24.00
2009,07,16,14,41,24.10
2009,07,16,14,42,24.10
2009,07,16,14,43,24.10
2009,07,16,14,44,24.10
2009,07,16,14,45,24.30
2009,07,16,14,46,24.40
2009,07,16,14,47,24.40
2009,07,16,14,48,24.40
2009,07,16,14,49,24.50
2009,07,16,14,50,24.50
2009,07,16,14,51,24.50
2009,07,16,14,52,24.50
2009,07,16,14,53,24.50
2009,07,16,14,54,24.50
2009,07,16,14,55,24.50
2009,07,16,14,56,24.40
2009,07,16,14,57,24.40
2009,07,16,14,58,24.40
2009,07,16,14,59,24.30
2009,07,16,15,00,24.30
2009,07,16,15,01,24.30
2009,07,16,15,02,24.50
2009,07,16,15,03,24.60
2009,07,16,15,04,24.70
2009,07,16,15,05,24.80
2009,07,16,15,06,24.90
2009,07,16,15,07,25.10
2009,07,16,15,08,25.20
2009,07,16,15,09,25.30
2009,07,16,15,10,25.30
2009,07,16,15,11,25.30
2009,07,16,15,12,25.20
2009,07,16,15,13,25.20
2009,07,16,15,14,25.20
2009,07,16,15,15,25.20
2009,07,16,15,16,25.20
2009,07,16,15,17,25.20
2009,07,16,15,18,25.20
2009,07,16,15,19,25.20
2009,07,16,15,20,25.20
2009,07,16,15,21,25.30
2009,07,16,15,22,25.30
2009,07,16,15,23,25.40
2009,07,16,15,24,25.50
2009,07,16,15,25,25.70
2009,07,16,15,26,25.90
2009,07,16,15,27,26.00
2009,07,16,15,28,26.20
2009,07,16,15,29,26.30
2009,07,16,15,30,26.40
2009,07,16,15,31,26.40
2009,07,16,15,32,26.50
2009,07,16,15,33,26.50
2009,07,16,15,34,26.60
2009,07,16,15,35,26.80
2009,07,16,15,36,26.90
2009,07,16,15,37,27.00
2009,07,16,15,38,27.10
2009,07,16,15,39,27.20
2009,07,16,15,40,27.10
2009,07,16,15,41,27.00
2009,07,16,15,42,26.90
2009,07,16,15,43,26.80
2009,07,16,15,44,26.80
2009,07,16,15,45,26.80
2009,07,16,15,46,26.70
2009,07,16,15,47,26.70
2009,07,16,15,48,26.60
2009,07,16,15,49,26.60
2009,07,16,15,50,26.60
2009,07,16,15,51,26.60
2009,07,16,15,52,26.70
2009,07,16,15,53,26.80
2009,07,16,15,54,26.90
2009,07,16,15,55,27.10
2009,07,16,15,56,27.30
2009,07,16,15,57,27.50
2009,07,16,15,58,27.60
2009,07,16,15,59,27.60
2009,07,16,16,00,27.70
2009,07,16,16,01,27.70
2009,07,16,16,02,27.70
2009,07,16,16,03,27.70
2009,07,16,16,04,27.70
2009,07,16,16,05,27.80
2009,07,16,16,06,27.90
2009,07,16,16,07,27.90
2009,07,16,16,08,27.90
2009,07,16,16,09,27.90
2009,07,16,16,10,27.90
2009,07,16,16,11,27.90
2009,07,16,16,12,28.00
2009,07,16,16,13,28.00
2009,07,16,16,14,28.10
2009,07,16,16,15,28.10
2009,07,16,16,16,28.10
2009,07,16,16,17,28.20
2009,07,16,16,18,28.20
2009,07,16,16,19,28.10
2009,07,16,16,20,28.10
2009,07,16,16,21,28.20
2009,07,16,16,22,28.20
2009,07,16,16,23,28.20
2009,07,16,16,24,28.20
2009,07,16,16,25,28.20
2009,07,16,16,26,28.20
2009,07,16,16,27,28.20
2009,07,16,16,28,28.20
2009,07,16,16,29,28.20
2009,07,16,16,30,28.30
2009,07,16,16,31,28.30
2009,07,16,16,32,28.30
2009,07,16,16,33,28.40
2009,07,16,16,34,28.50
2009,07,16,16,35,28.60
2009,07,16,16,36,28.60
2009,07,16,16,37,28.50
2009,07,16,16,38,28.30
2009,07,16,16,39,28.30
2009,07,16,16,40,28.30
2009,07,16,16,41,28.20
2009,07,16,16,42,28.20
2009,07,16,16,43,28.10
2009,07,16,16,44,28.00
2009,07,16,16,45,27.80
2009,07,16,16,46,27.70
2009,07,16,16,47,27.60
2009,07,16,16,48,27.50
2009,07,16,16,49,27.50
2009,07,16,16,50,27.50
2009,07,16,16,51,27.60
2009,07,16,16,52,27.70
2009,07,16,16,53,27.80
2009,07,16,16,54,27.80
2009,07,16,16,55,27.90
2009,07,16,16,56,28.00
2009,07,16,16,57,28.00
2009,07,16,16,58,28.00
2009,07,16,16,59,28.00
2009,07,16,17,00,27.90
2009,07,16,17,01,27.90
2009,07,16,17,02,27.90
2009,07,16,17,03,27.90
2009,07,16,17,04,27.90
2009,07,16,17,05,27.90
2009,07,16,17,06,27.90
2009,07,16,17,07,27.80
2009,07,16,17,08,27.80
2009,07,16,17,09,27.80
2009,07,16,17,10,27.90
2009,07,16,17,11,27.90
2009,07,16,17,12,27.90
2009,07,16,17,13,28.00
2009,07,16,17,14,28.10
2009,07,16,17,15,28.10
2009,07,16,17,16,28.10
2009,07,16,17,17,28.00
2009,07,16,17,18,28.00
2009,07,16,17,19,28.10